Previsão horária em Abaran

Hoje, 23 Janeiro, Sábado

Tempo Temperatura Precipitação Vento Pressão Humidade
00:00 +6°C° 0 mm 5 m/s 727 mmHg 63%
01:00 +6°C° 0 mm 4 m/s 727 mmHg 65%
02:00 +5°C° 0 mm 3 m/s 727 mmHg 67%
03:00 +5°C° 0 mm 3 m/s 727 mmHg 69%
04:00 +5°C° 0 mm 3 m/s 727 mmHg 70%
05:00 +4°C° 0 mm 3 m/s 727 mmHg 71%
06:00 +4°C° 0 mm 3 m/s 727 mmHg 72%
07:00 +5°C° 0 mm 3 m/s 727 mmHg 69%
08:00 +6°C° 0 mm 4 m/s 727 mmHg 65%
09:00 +7°C° 0 mm 4 m/s 728 mmHg 62%
10:00 +9°C° 0 mm 5 m/s 728 mmHg 56%
11:00 +10°C° 0 mm 6 m/s 728 mmHg 51%
12:00 +11°C° 0 mm 8 m/s 728 mmHg 46%
13:00 +11°C° 0 mm 8 m/s 727 mmHg 47%
14:00 +12°C° 0 mm 8 m/s 727 mmHg 49%
15:00 +12°C° 0 mm 9 m/s 726 mmHg 50%
16:00 +10°C° 0 mm 7 m/s 725 mmHg 54%
17:00 +9°C° 0 mm 5 m/s 725 mmHg 59%
18:00 +9°C° 0 mm 2 m/s 724 mmHg 63%
19:00 +9°C° 0 mm 3 m/s 724 mmHg 65%
20:00 +9°C° 0 mm 3 m/s 724 mmHg 66%
21:00 +9°C° 0 mm 3 m/s 723 mmHg 67%
22:00 +8°C° 0 mm 4 m/s 723 mmHg 70%
23:00 +8°C° 0 mm 4 m/s 722 mmHg 72%

Amanhã, 24 Janeiro, Domingo

Tempo Temperatura Precipitação Vento Pressão Humidade
00:00 +8°C° 0 mm 4 m/s 722 mmHg 75%
01:00 +9°C° 0 mm 5 m/s 721 mmHg 75%
02:00 +10°C° 0 mm 5 m/s 721 mmHg 74%
03:00 +10°C° 0 mm 6 m/s 721 mmHg 74%
04:00 +11°C° 0 mm 9 m/s 721 mmHg 69%
05:00 +10°C° 0 mm 12 m/s 722 mmHg 64%
06:00 +10°C° 0 mm 15 m/s 722 mmHg 59%
07:00 +10°C° 0 mm 13 m/s 723 mmHg 58%
08:00 +9°C° 0 mm 11 m/s 724 mmHg 57%
09:00 +10°C° 0 mm 9 m/s 724 mmHg 56%
10:00 +11°C° 0 mm 8 m/s 725 mmHg 51%
11:00 +12°C° 0 mm 8 m/s 725 mmHg 47%
12:00 +15°C° 0 mm 8 m/s 725 mmHg 42%
13:00 +14°C° 0 mm 7 m/s 725 mmHg 43%
14:00 +14°C° 0 mm 7 m/s 725 mmHg 45%
15:00 +14°C° 0 mm 7 m/s 725 mmHg 46%
16:00 +13°C° 0 mm 6 m/s 725 mmHg 52%
17:00 +12°C° 0 mm 5 m/s 726 mmHg 57%
18:00 +10°C° 0 mm 5 m/s 726 mmHg 62%
19:00 +10°C° 0 mm 4 m/s 726 mmHg 63%
20:00 +10°C° 0 mm 4 m/s 727 mmHg 64%
21:00 +10°C° 0 mm 4 m/s 727 mmHg 65%
22:00 +10°C° 0 mm 4 m/s 727 mmHg 66%
23:00 +9°C° 0 mm 5 m/s 727 mmHg 66%

Depois de amanhã, 25 Janeiro, Segunda-feira

Tempo Temperatura Precipitação Vento Pressão Humidade
00:00 +8°C° 0 mm 5 m/s 727 mmHg 67%
01:00 +8°C° 0 mm 4 m/s 727 mmHg 68%
02:00 +8°C° 0 mm 4 m/s 727 mmHg 69%
03:00 +8°C° 0 mm 4 m/s 727 mmHg 70%
04:00 +8°C° 0 mm 3 m/s 728 mmHg 71%
05:00 +8°C° 0 mm 2 m/s 728 mmHg 73%
06:00 +8°C° 0 mm 1 m/s 728 mmHg 75%
07:00 +9°C° 0 mm 1 m/s 728 mmHg 71%
08:00 +10°C° 0 mm 1 m/s 729 mmHg 68%
09:00 +11°C° 0 mm 1 m/s 730 mmHg 64%
10:00 +12°C° 0 mm 1 m/s 730 mmHg 59%
11:00 +13°C° 0 mm 2 m/s 730 mmHg 54%
12:00 +14°C° 0 mm 2 m/s 730 mmHg 50%
13:00 +15°C° 0 mm 2 m/s 730 mmHg 48%
14:00 +15°C° 0 mm 2 m/s 730 mmHg 47%
15:00 +16°C° 0 mm 2 m/s 729 mmHg 46%
16:00 +14°C° 0 mm 2 m/s 730 mmHg 53%
17:00 +13°C° 0 mm 2 m/s 730 mmHg 60%
18:00 +11°C° 0 mm 1 m/s 730 mmHg 67%
19:00 +11°C° 0 mm 1 m/s 731 mmHg 71%
20:00 +10°C° 0 mm 1 m/s 731 mmHg 75%
21:00 +9°C° 0 mm 1 m/s 732 mmHg 79%
22:00 +9°C° 0 mm 1 m/s 732 mmHg 81%
23:00 +9°C° 0 mm 1 m/s 732 mmHg 83%

26 Janeiro, Terça-feira

Tempo Temperatura Precipitação Vento Pressão Humidade
00:00 +8°C° 0 mm 1 m/s 732 mmHg 85%
01:00 +8°C° 0 mm 1 m/s 732 mmHg 85%
02:00 +8°C° 0 mm 1 m/s 731 mmHg 85%
03:00 +8°C° 0 mm 1 m/s 731 mmHg 86%
04:00 +8°C° 0 mm 1 m/s 731 mmHg 86%
05:00 +8°C° 0 mm 1 m/s 731 mmHg 86%
06:00 +8°C° 0 mm 1 m/s 731 mmHg 86%
07:00 +9°C° 0 mm 1 m/s 732 mmHg 81%
08:00 +11°C° 0 mm 1 m/s 732 mmHg 76%
09:00 +13°C° 0 mm 1 m/s 733 mmHg 72%
10:00 +14°C° 0 mm 2 m/s 733 mmHg 67%
11:00 +16°C° 0 mm 3 m/s 733 mmHg 62%
12:00 +17°C° 0 mm 4 m/s 733 mmHg 57%
13:00 +17°C° 0 mm 5 m/s 733 mmHg 55%
14:00 +17°C° 0 mm 5 m/s 733 mmHg 53%
15:00 +19°C° 0 mm 5 m/s 732 mmHg 51%
16:00 +17°C° 0 mm 4 m/s 732 mmHg 57%
17:00 +15°C° 0 mm 4 m/s 732 mmHg 63%
18:00 +13°C° 0 mm 3 m/s 732 mmHg 69%
19:00 +13°C° 0 mm 3 m/s 733 mmHg 73%
20:00 +13°C° 0 mm 2 m/s 733 mmHg 76%
21:00 +13°C° 0 mm 2 m/s 733 mmHg 80%
22:00 +13°C° 0 mm 2 m/s 733 mmHg 81%
23:00 +13°C° 0 mm 2 m/s 733 mmHg 83%

27 Janeiro, Quarta-feira

Tempo Temperatura Precipitação Vento Pressão Humidade
00:00 +12°C° 0 mm 2 m/s 733 mmHg 84%
01:00 +12°C° 0 mm 3 m/s 733 mmHg 84%
02:00 +12°C° 0 mm 3 m/s 733 mmHg 84%
03:00 +12°C° 0 mm 3 m/s 733 mmHg 83%
04:00 +12°C° 0 mm 3 m/s 733 mmHg 83%
05:00 +13°C° 0 mm 2 m/s 733 mmHg 84%
06:00 +13°C° 0 mm 2 m/s 733 mmHg 84%
07:00 +13°C° 0 mm 2 m/s 733 mmHg 82%
08:00 +14°C° 0 mm 2 m/s 734 mmHg 80%
09:00 +15°C° 0 mm 2 m/s 734 mmHg 78%
10:00 +16°C° 0 mm 3 m/s 734 mmHg 72%
11:00 +18°C° 0 mm 3 m/s 734 mmHg 66%
12:00 +19°C° 0 mm 3 m/s 734 mmHg 60%
13:00 +19°C° 0 mm 3 m/s 734 mmHg 59%
14:00 +20°C° 0 mm 4 m/s 734 mmHg 58%
15:00 +20°C° 0 mm 4 m/s 733 mmHg 56%
16:00 +19°C° 0 mm 4 m/s 733 mmHg 62%
17:00 +17°C° 0 mm 4 m/s 733 mmHg 67%
18:00 +15°C° 0 mm 4 m/s 733 mmHg 72%
19:00 +14°C° 0 mm 4 m/s 733 mmHg 74%
20:00 +14°C° 0 mm 4 m/s 733 mmHg 76%
21:00 +13°C° 0 mm 4 m/s 734 mmHg 78%
22:00 +13°C° 0 mm 3 m/s 734 mmHg 79%
23:00 +12°C° 0 mm 3 m/s 734 mmHg 81%

28 Janeiro, Quinta-feira

Tempo Temperatura Precipitação Vento Pressão Humidade
00:00 +12°C° 0 mm 3 m/s 734 mmHg 83%
01:00 +11°C° 0 mm 3 m/s 734 mmHg 84%
02:00 +11°C° 0 mm 3 m/s 734 mmHg 85%
03:00 +11°C° 0 mm 3 m/s 734 mmHg 86%
04:00 +11°C° 0 mm 3 m/s 734 mmHg 86%
05:00 +11°C° 0 mm 3 m/s 734 mmHg 87%
06:00 +11°C° 0 mm 3 m/s 734 mmHg 87%
07:00 +12°C° 0 mm 3 m/s 734 mmHg 83%
08:00 +12°C° 0 mm 3 m/s 734 mmHg 80%
09:00 +13°C° 0 mm 3 m/s 735 mmHg 76%
10:00 +16°C° 0 mm 3 m/s 735 mmHg 69%
11:00 +18°C° 0 mm 4 m/s 735 mmHg 62%
12:00 +19°C° 0 mm 4 m/s 735 mmHg 54%
13:00 +20°C° 0 mm 4 m/s 735 mmHg 52%
14:00 +20°C° 0 mm 4 m/s 734 mmHg 50%
15:00 +21°C° 0 mm 4 m/s 734 mmHg 48%
16:00 +19°C° 0 mm 3 m/s 734 mmHg 56%
17:00 +17°C° 0 mm 3 m/s 734 mmHg 64%
18:00 +15°C° 0 mm 2 m/s 734 mmHg 72%
Mostrar mais